{"data":{"norad_id":63372,"epoch":"2026-05-25T03:52:42.271104Z","epoch_age_seconds":64291,"freshness":"FRESH","line1":"1 63372U 25063K   26145.16160036  .00028295  00000+0  96367-3 0  9997","line2":"2 63372  53.1596  54.7010 0001262  87.9263 272.1882 15.30204726 66502","mean_motion":15.30204726,"eccentricity":0.0001262,"inclination_deg":53.1596,"raan_deg":54.701,"arg_perigee_deg":87.9263,"mean_anomaly_deg":272.1882,"bstar":0.00096367,"rev_number":6650,"period_min":94.105055064377,"perigee_km":474.33606722115,"apogee_km":476.06584972187,"semimajor_km":6853.3379584715,"source":"CELESTRAK","updated_at":"2026-05-25T13:38:19.963311Z"}}